Location: Walnut Hills Mobile Home Park
(34.0445°N, 117.8184°W)
Time: 02:43:26
(UTC+00:00)

Cosmos 2333 Rocket - Pass Details

Date: 17 December 2025
Orbit: 837 x 865 km, 70.8° (Epoch: 15 January)

Event Time Altitude Azimuth Distance (km) Brightness Sun altitude
Exits shadow 13:05:36 40° 264° (W) 1,240 2.6 -21.1°
Maximum altitude 13:05:56 41° 255° (WSW) 1,231 2.6 -21.1°
Drops below altitude 10° 13:11:13 10° 187° (S) 2,471 4.7 -20.0°
Sets 13:13:46 0° 180° (S) 3,399 5.5 -19.5°
